Theta_e
317 314 313 312 310 309 307 306 307 307 308 312 312 313 316 312 312 312 310 308 308 309
314 311 310 312 310 309 310 307 306 306 306 310 309 309 309 308 307 307 307 306 305 305
313 311 310 311 309 308 309 307 308 306 305 306 307 307 305 306 307 306 306 306 305 304
311 308 309 309 307 308 306 306 305 305 303 303 304 304 302 302 302 302 303 303 305 305
311 311 309 308 306 306 304 304 303 303 304 302 301 302 300 299 300 300 301 302 302 302
308 308 307 305 305 305 304 303 303 302 301 302 301 300 300 300 299 299 300 301 302 302
306 308 306 305 306 304 304 304 303 302 301 300 300 300 300 301 302 301 301 303 302 302
305 308 305 306 306 305 305 304 304 302 301 300 298 299 300 301 302 302 302 304 303 304
305 305 306 306 306 305 304 304 303 303 301 299 299 300 301 301 301 302 303 302 304 304
307 305 306 306 305 304 304 304 304 303 302 302 300 299 299 302 302 303 303 303 304 304
307 306 306 306 304 304 305 305 304 303 304 304 301 300 299 301 307 306 305 304 304 304
308 306 307 305 304 304 303 302 303 305 305 304 303 299 298 301 304 304 304 305 302 302
308 308 307 308 305 305 304 304 304 304 305 304 304 299 298 300 305 305 304 305 305 301
308 309 309 309 308 306 304 304 304 304 305 306 304 305 298 298 305 304 303 303 303 303
Wind_Speed
13 9 8 9 8 8 8 9 12 13 14 13 13 13 10 9 9 8 7 9 7 4
10 8 7 6 8 7 7 9 11 13 14 14 13 14 12 8 9 8 8 7 7 5
10 11 10 9 10 11 11 9 10 12 14 14 14 14 12 10 9 9 7 6 8 7
12 11 9 10 11 12 11 11 12 10 12 13 12 12 11 11 11 11 10 11 10 8
11 12 11 12 12 11 11 11 11 12 9 10 12 12 11 11 10 10 10 9 11 12
10 10 14 10 10 11 10 10 10 10 12 8 9 10 9 8 8 7 6 8 8 9
12 12 9 8 10 10 10 10 9 9 10 11 9 10 10 9 7 4 4 3 8 9
10 10 8 10 10 9 9 9 9 9 9 9 9 10 11 12 10 9 8 5 7 8
10 9 10 9 10 11 11 9 10 11 11 11 8 16 18 14 7 9 10 7 6 8
11 11 12 11 11 10 9 9 9 10 7 9 11 18 17 14 4 6 7 10 8 8
10 10 11 11 11 12 11 12 11 10 9 8 11 19 18 14 4 4 9 11 11 10
10 10 9 8 8 6 9 10 10 10 12 12 10 19 18 13 6 5 8 8 10 9
10 10 10 9 8 11 5 8 8 9 10 10 10 13 17 15 7 8 5 5 7 13
8 7 9 9 10 10 8 9 10 9 6 7 8 10 14 16 10 8 8 8 7 7
Wind_Direction
36 19 18 14 359 357 353 354 345 346 345 343 359 357 16 21 15 20 28 26 21 28
40 35 7 8 1 341 346 358 352 356 353 355 14 10 15 28 20 23 23 23 24 26
28 26 9 357 9 357 15 359 5 6 359 1 14 14 15 17 17 31 32 31 31 24
21 10 353 16 8 20 15 9 7 10 10 6 11 19 15 15 17 23 21 15 19 16
16 5 10 19 28 20 12 16 6 358 18 20 16 14 16 13 9 15 14 20 19 18
10 7 28 30 20 17 10 8 7 8 4 12 28 9 2 0 357 358 3 17 17 35
3 10 27 13 21 11 2 359 9 10 7 7 16 12 350 342 326 281 303 49 41 39
356 16 14 14 15 7 2 9 10 9 12 15 25 11 353 352 16 16 19 46 67 51
25 14 21 16 15 6 7 10 7 21 35 27 17 355 360 2 6 20 28 29 46 58
24 21 23 15 12 9 5 12 6 14 26 39 14 358 353 347 355 22 32 34 27 39
36 32 24 20 10 10 8 11 10 8 10 26 18 5 5 347 32 55 59 41 21 27
27 27 20 14 358 358 11 11 7 6 13 15 33 7 1 358 36 39 43 57 44 29
23 25 19 20 27 25 13 12 12 15 16 10 9 16 360 3 21 18 40 45 54 38
12 23 17 20 28 27 23 20 23 16 14 9 13 14 17 10 19 9 19 25 33 31